Location: Acton
(51.4942°N, 0.2232°W)
Time: 10:18:44
(UTC+00:00)

Cosmos 2278 Rocket - Visible Passes

Search period start: 20 June 2021 00:00
Search period end: 30 June 2021 00:00
Orbit: 841 x 845 km, 71.0° (Epoch: 19 June)

Date Brightness Start Highest point End Pass type
(mag) Time Alt. Az. Time Alt. Az. Time Alt. Az.
20 Jun 3.1 21:09:21 10° NNW 21:14:44 41° NE 21:20:05 10° ESE visible
20 Jun 2.9 22:53:32 10° NW 22:58:54 44° WSW 23:02:45 18° S visible
21 Jun 2.8 22:38:56 10° NW 22:44:20 46° WSW 22:48:27 17° S visible
22 Jun 2.8 22:24:19 10° NW 22:29:46 48° WSW 22:34:11 15° S visible
23 Jun 2.8 22:09:44 10° NW 22:15:11 50° WSW 22:19:57 14° S visible
24 Jun 2.8 21:55:08 10° NW 22:00:37 52° WSW 22:05:45 12° S visible
25 Jun 2.7 21:40:32 10° NW 21:46:03 54° WSW 21:51:32 10° S visible
26 Jun 2.7 21:25:55 10° NW 21:31:28 56° WSW 21:36:59 10° S visible
27 Jun 2.7 21:11:20 10° NW 21:16:54 58° WSW 21:22:26 10° S visible
27 Jun 4.7 22:59:30 10° W 22:59:46 10° W 23:00:00 10° W visible
28 Jun 2.7 20:56:44 10° NW 21:02:19 60° WSW 21:07:53 10° SSE visible
28 Jun 4.7 22:44:06 10° W 22:45:13 11° W 22:46:20 10° WSW visible
29 Jun 4.7 22:29:07 10° WNW 22:30:40 11° W 22:32:13 10° WSW visible
